Theta_e
294 293 292 291 291 291 291 290 291 291 290 289 288 288 286 285 282 280 281 281 283 286 288 286 288 287 287 288 288 286 286 289 288 285 285 285 284 290 291 291 292 292 292 293 294 294 294 294 294 294 294 294 295 296 296 296 297 298 299 298 299 299 301 302 300 300 301 301 301 302 302 302 302 302
292 291 290 290 289 290 290 289 289 288 288 287 288 286 287 286 284 282 280 280 284 284 286 286 286 286 286 288 288 287 285 291 288 285 284 285 284 290 289 290 290 291 292 293 293 293 293 293 293 293 293 293 295 296 297 296 297 297 298 299 300 300 300 300 300 300 299 300 301 301 302 302 302 302
291 289 289 289 289 289 289 289 288 287 288 287 286 286 288 287 286 285 283 280 282 285 284 285 286 286 286 287 285 286 286 288 287 284 284 283 288 289 287 288 289 290 291 292 292 293 293 293 293 293 293 293 294 295 296 296 296 296 297 299 299 298 300 298 298 298 298 299 300 300 300 301 301 302
290 288 288 288 288 287 287 287 287 286 286 286 287 286 287 286 285 285 283 281 280 284 284 285 285 285 285 285 284 283 285 287 288 283 283 283 286 284 283 286 288 289 290 291 291 291 292 292 292 292 292 293 294 294 295 295 295 296 297 297 298 297 298 297 297 298 297 297 298 299 299 299 299 300
288 287 287 287 287 287 286 286 286 286 285 285 285 285 285 285 285 284 283 282 281 281 283 285 285 285 285 283 284 282 282 282 283 285 282 282 282 282 282 282 286 287 289 290 290 290 290 290 290 291 290 291 292 292 293 293 293 294 295 295 297 297 296 297 297 297 296 297 297 297 297 298 299 299
288 287 287 286 286 285 285 285 285 285 285 284 284 284 284 284 284 283 283 280 281 279 280 281 283 283 284 281 282 282 281 280 281 281 281 281 281 281 281 281 282 287 288 289 289 289 289 289 289 289 289 290 290 292 293 292 293 294 294 294 294 295 296 297 296 295 295 296 296 297 297 297 298 298
287 286 286 286 286 287 285 284 284 284 284 284 284 284 284 283 283 282 282 280 280 278 279 280 281 281 282 282 281 281 282 281 281 279 279 281 282 281 281 281 282 286 287 288 287 287 288 288 288 288 289 289 290 290 291 291 292 293 294 293 293 293 293 294 294 294 294 295 295 295 295 296 297 297
286 285 285 285 286 285 284 284 284 285 284 284 284 283 283 283 283 282 281 281 279 279 280 279 281 282 280 280 280 282 280 280 279 279 279 280 279 279 281 280 280 284 286 286 286 286 286 287 287 288 288 288 289 289 290 290 291 291 292 292 292 292 292 292 292 292 293 293 295 295 295 295 295 295
285 285 285 285 285 285 284 284 284 284 284 284 284 284 283 283 283 283 282 280 280 279 279 280 281 281 279 281 280 279 279 279 278 278 278 278 278 279 279 280 282 284 285 284 284 284 285 285 286 286 287 287 288 288 288 289 289 290 291 291 291 291 291 291 291 291 291 291 291 293 294 294 294 294
285 285 285 285 285 285 284 284 284 284 284 284 284 283 283 283 282 281 280 280 280 280 280 279 279 279 280 278 279 279 279 278 277 277 277 277 277 278 278 279 281 281 280 280 280 281 282 283 284 285 285 286 287 287 287 287 288 289 290 291 290 290 290 290 290 290 290 290 290 291 292 292 293 293
285 285 285 285 285 285 284 284 284 284 284 284 283 283 282 282 281 280 280 280 280 279 279 279 279 278 278 279 277 277 278 277 277 276 275 274 278 278 278 277 278 279 279 280 281 281 281 282 281 283 283 284 285 286 286 286 288 288 289 290 290 290 289 290 289 289 289 289 289 290 290 290 292 292
285 285 285 285 285 285 285 284 284 285 284 284 283 283 282 281 281 280 280 280 279 279 279 278 277 277 278 277 277 278 276 275 275 276 275 274 275 277 278 276 275 275 276 276 276 279 279 279 280 282 282 282 284 283 283 285 286 287 289 289 289 289 289 289 289 289 289 288 288 288 288 289 290 292
284 284 284 284 284 284 285 286 286 286 286 284 283 282 282 281 280 279 280 280 279 277 278 277 278 276 276 276 276 275 275 275 274 275 276 276 277 278 277 276 274 274 275 275 275 275 276 276 276 276 276 278 280 280 282 283 286 287 289 289 289 289 289 288 288 288 288 288 288 288 288 288 288 289
283 283 283 283 284 284 285 285 286 287 287 286 284 283 282 281 280 279 278 277 276 276 275 275 276 274 273 276 275 274 275 275 273 275 276 276 277 277 275 274 274 273 275 274 274 274 274 275 274 275 275 277 278 278 279 282 285 286 288 288 288 288 288 288 288 287 287 287 287 287 287 287 286 287
282 282 282 282 283 283 283 283 286 286 285 286 286 286 285 284 281 279 277 277 277 274 273 274 274 274 274 275 274 276 275 273 275 276 277 277 276 274 273 271 274 275 275 274 273 273 272 273 273 274 274 275 276 277 278 284 286 286 287 287 287 287 287 287 287 287 287 287 287 287 286 286 285 285
282 281 281 281 281 281 281 282 283 284 285 285 285 284 284 284 284 284 279 277 275 275 272 272 273 275 273 274 275 273 273 273 275 277 277 277 275 274 273 273 272 276 276 273 272 272 273 271 272 273 274 275 276 277 281 285 286 286 286 286 286 286 286 286 286 287 287 287 286 286 285 285 284 284
281 281 280 280 280 280 282 281 281 281 282 284 284 284 283 283 283 284 284 283 278 277 274 273 273 276 275 275 275 276 276 277 275 276 276 276 275 275 273 273 274 275 276 272 270 270 271 271 272 271 274 275 275 276 279 284 285 286 285 285 285 285 285 285 285 285 286 286 286 285 284 284 283 283
281 280 280 279 279 280 281 280 280 281 281 281 281 281 281 281 282 283 283 283 283 281 277 275 274 276 277 275 277 278 278 277 276 276 275 276 274 274 273 275 275 275 273 271 270 268 268 270 271 271 272 274 275 275 279 283 284 285 285 284 284 284 284 284 284 284 285 286 286 285 283 282 282 282
281 280 280 280 280 280 280 280 281 280 280 280 281 280 280 280 280 280 280 280 279 279 279 277 277 277 278 278 277 278 279 278 278 278 277 276 275 275 276 274 272 271 271 271 271 267 270 270 270 271 272 273 273 274 277 282 283 284 283 283 283 283 283 283 283 283 284 285 285 285 284 282 282 281
281 281 280 280 280 280 280 282 283 282 281 281 280 280 280 279 279 279 281 282 282 279 278 277 277 278 279 282 281 281 280 280 279 278 276 276 275 273 271 269 269 267 270 272 271 270 269 269 270 271 272 272 272 273 273 279 282 282 282 282 282 282 282 282 282 282 283 284 284 285 285 283 281 280
280 280 280 280 279 279 279 282 284 284 283 281 281 279 278 278 278 278 279 282 283 283 283 283 283 283 283 283 283 282 282 282 279 275 273 272 272 270 269 269 268 267 269 271 273 268 267 269 271 271 272 271 271 272 271 269 279 281 281 280 280 281 281 281 281 281 282 283 283 284 284 283 280 279
280 280 281 281 280 279 279 283 285 285 284 281 280 278 277 277 276 277 278 278 279 283 283 282 283 282 282 281 281 281 281 281 278 272 270 272 271 270 270 268 269 269 267 268 272 267 266 270 272 270 271 272 268 270 269 273 272 277 277 278 278 279 280 280 280 280 281 282 282 283 283 284 280 276
279 279 281 281 280 280 281 284 286 286 284 281 280 279 277 276 276 276 277 277 276 276 277 276 275 273 276 276 274 275 279 279 278 276 275 274 273 270 270 270 269 267 264 266 271 269 270 270 271 270 268 268 271 269 270 272 267 270 271 271 271 277 277 278 278 279 279 280 281 282 282 283 281 276
277 278 279 281 283 283 283 285 286 286 285 281 280 279 277 276 276 277 277 277 277 276 276 273 272 270 271 272 273 272 272 272 275 275 274 275 273 271 270 270 269 267 264 264 275 270 270 271 269 271 270 267 266 269 273 272 269 270 270 270 269 273 274 275 274 277 277 278 280 280 281 281 281 277
277 277 278 279 283 284 284 286 286 286 286 283 280 280 278 278 278 279 277 278 279 276 274 273 271 270 270 271 270 270 270 270 271 273 276 276 275 273 270 269 269 269 270 269 275 270 268 269 269 270 269 270 270 270 272 273 269 268 269 269 268 269 269 270 271 270 274 276 278 279 280 281 281 279
277 278 278 279 281 284 284 285 286 286 286 285 281 280 281 281 281 279 277 276 275 274 272 270 270 269 268 267 267 269 269 270 272 271 273 275 274 274 273 271 269 267 267 267 275 267 267 267 269 269 269 269 269 271 270 272 269 266 269 269 267 267 268 268 268 269 270 270 271 275 276 279 280 280
278 279 279 279 281 284 284 285 286 286 286 285 282 282 283 282 282 280 276 275 273 272 271 270 270 269 268 267 267 267 267 267 268 271 271 272 273 272 272 271 271 270 270 268 268 268 267 268 271 269 268 269 268 269 271 271 270 269 269 268 268 265 268 267 268 268 269 269 270 275 275 277 278 279
280 279 279 280 282 284 284 285 286 286 285 283 284 284 283 282 282 276 274 274 272 272 271 271 270 270 268 267 266 267 268 268 268 268 269 269 270 272 271 269 269 269 269 268 267 267 268 269 270 271 270 269 268 268 268 272 270 266 267 268 265 265 267 267 267 268 268 269 269 270 269 270 272 273
280 281 281 281 282 283 284 285 285 285 284 284 284 283 283 282 277 274 273 272 272 271 271 271 270 269 269 269 267 267 267 268 269 269 268 269 271 271 270 268 268 268 269 268 267 267 268 268 267 268 268 270 269 269 270 269 268 265 266 267 263 265 266 267 266 266 267 268 268 268 268 269 271 273
282 283 282 282 282 283 284 283 282 280 281 283 283 282 281 277 273 273 272 272 271 271 271 270 270 269 268 267 267 267 266 266 266 267 267 268 268 266 265 265 266 265 266 267 268 268 268 267 266 265 264 267 269 269 269 265 264 262 265 264 265 265 264 266 266 266 266 266 267 267 269 270 272 273
281 282 281 281 282 282 283 282 281 280 280 280 280 277 276 273 272 272 272 272 271 271 270 270 269 267 267 267 267 266 266 266 268 271 271 270 267 266 264 264 265 265 267 264 268 269 268 268 266 265 263 263 265 265 265 262 262 262 261 263 264 262 263 263 264 265 266 266 265 266 269 270 271 273
280 280 281 281 280 280 280 279 275 274 274 273 273 272 272 271 271 272 273 273 270 269 269 268 267 266 266 265 264 265 265 266 268 270 271 271 268 267 265 264 263 263 264 264 264 267 271 268 267 265 266 264 263 262 260 261 262 261 260 263 264 262 263 263 263 264 265 265 264 265 267 269 270 272
278 278 278 277 276 276 276 274 272 272 271 271 271 270 270 270 269 270 269 269 268 268 268 267 267 266 265 266 267 267 266 267 267 268 269 270 269 266 265 264 264 263 263 263 263 263 264 267 267 266 265 265 265 265 262 261 259 258 260 260 262 261 261 262 264 263 264 263 262 262 265 267 269 271
277 276 276 276 275 274 274 273 272 271 270 269 269 269 270 269 268 268 268 268 267 268 267 266 266 266 266 266 267 267 267 266 267 269 271 268 269 267 265 264 264 264 264 263 262 262 263 263 263 264 264 265 264 265 265 262 263 260 258 259 263 260 262 262 263 262 263 264 263 261 263 265 267 269
276 275 275 274 274 273 273 273 272 271 270 270 269 269 268 269 268 268 268 267 267 267 266 266 266 266 266 266 267 266 266 266 266 266 269 270 269 268 267 266 264 264 263 263 262 262 262 262 262 263 263 264 265 265 269 266 260 261 259 259 259 261 261 262 263 261 262 263 262 262 261 261 264 267
275 275 274 274 273 272 272 272 272 271 271 270 270 269 268 267 268 267 267 268 267 266 266 265 266 266 266 266 266 266 266 267 266 266 267 268 268 268 267 266 265 264 263 262 262 261 261 261 262 262 262 262 265 266 262 271 270 262 261 259 259 260 262 261 261 261 261 261 262 261 260 260 262 266
275 275 274 274 274 273 272 272 272 272 272 271 270 270 269 268 268 268 268 269 266 266 266 265 265 266 266 266 266 266 266 266 265 267 267 268 268 267 267 267 267 266 263 263 262 261 261 261 261 261 261 263 265 266 266 263 268 270 262 261 260 259 260 260 260 260 261 260 259 261 262 261 261 265
275 275 275 274 274 274 273 273 273 272 272 272 271 271 270 269 268 268 267 266 265 265 266 266 265 266 266 266 265 265 265 266 266 265 266 266 266 267 267 266 266 265 264 264 262 261 260 260 260 260 260 262 264 265 264 263 262 263 270 263 261 260 262 261 259 258 260 260 260 262 261 261 262 265
277 276 275 275 275 274 274 273 273 272 272 272 271 271 270 269 267 266 265 265 265 265 265 265 265 265 265 265 265 264 264 265 265 265 266 266 267 266 266 266 265 265 263 262 261 260 260 260 260 260 260 260 263 261 261 259 259 259 264 271 262 259 260 259 258 257 257 259 260 261 260 261 267 272
278 277 276 276 275 275 274 274 273 273 272 272 272 271 270 268 267 265 264 264 264 264 264 265 265 265 265 265 265 265 264 264 264 265 265 266 266 267 266 266 265 264 262 262 261 262 260 261 261 262 261 261 259 259 260 262 262 262 262 265 273 267 261 260 259 258 259 259 259 260 259 260 260 260
278 277 277 276 276 276 275 274 274 273 273 272 271 270 269 268 267 265 265 264 264 264 264 264 265 265 264 265 264 264 263 264 264 264 265 265 266 266 266 266 265 265 263 262 262 263 264 264 263 267 261 258 260 261 262 261 260 259 260 262 271 272 272 270 261 259 260 259 259 258 258 259 259 260
277 277 278 277 276 276 276 275 274 273 272 271 269 268 268 267 267 266 265 265 265 264 264 264 264 264 264 264 264 264 263 263 263 264 265 265 265 266 266 266 264 264 263 262 262 261 262 262 263 263 261 261 260 260 259 260 260 260 260 260 260 269 272 272 271 270 263 261 257 259 259 258 257 256
276 276 276 276 276 275 275 274 273 272 270 269 268 268 267 266 266 266 265 265 264 264 264 264 264 264 264 264 264 264 263 263 263 263 264 264 264 263 263 264 264 264 264 263 262 262 263 263 263 263 263 262 262 261 259 259 259 258 259 260 261 262 263 270 271 271 271 271 270 264 261 258 256 256
276 275 275 275 274 273 273 272 272 271 270 269 268 267 266 266 265 265 265 265 264 264 264 264 264 263 263 263 263 263 263 262 263 263 263 264 264 264 263 263 264 264 264 263 262 262 262 262 263 264 262 263 263 262 262 260 260 261 260 259 260 260 262 261 264 269 270 271 271 272 273 273 271 271
276 275 274 273 272 271 270 270 269 268 268 267 266 265 265 265 265 265 265 264 264 264 264 263 263 263 263 263 262 262 262 264 263 263 264 264 264 264 264 264 263 263 263 263 263 261 261 261 261 262 262 262 262 262 262 262 261 261 260 259 259 260 260 261 263 265 265 264 270 272 272 273 273 273
Wind_Speed
6 6 6 7 6 5 5 5 5 4 4 4 4 4 4 4 5 2 1 2 2 0 2 2 2 5 5 5 6 3 3 3 5 4 4 4 4 8 16 16 16 16 17 19 20 22 22 22 23 23 24 24 25 26 27 27 29 30 31 31 31 32 33 34 34 34 35 36 37 38 38 38 39 39
6 6 7 6 6 5 6 5 4 4 4 4 3 3 3 3 5 4 3 3 2 1 1 2 1 1 4 5 4 2 3 5 4 3 4 4 3 10 15 15 16 16 18 19 21 22 22 22 22 23 23 24 24 24 26 27 27 29 31 32 31 32 32 33 33 34 34 36 37 37 38 38 39 40
7 8 8 6 6 6 6 5 4 4 4 3 3 3 2 2 2 3 3 1 2 2 0 2 3 3 3 3 3 3 3 4 3 4 4 4 6 9 8 14 15 16 18 20 21 22 22 22 22 22 23 23 24 25 25 25 26 29 30 31 32 32 32 32 33 33 34 35 36 37 38 39 39 40
7 8 9 7 7 6 6 5 5 4 3 3 4 3 2 2 2 2 3 3 4 1 1 0 2 3 3 2 3 2 2 3 5 4 4 3 5 5 5 9 15 16 18 20 20 21 22 22 22 22 22 22 23 24 25 25 26 28 29 30 31 31 32 32 32 33 33 35 36 36 37 38 39 40
6 7 8 7 6 6 6 6 5 5 4 3 4 3 2 3 3 3 2 5 4 4 1 4 3 3 4 3 1 2 2 3 3 4 4 2 4 4 6 6 10 16 18 18 19 20 22 22 22 22 22 22 22 23 24 24 26 27 28 29 30 31 31 32 32 33 33 35 36 37 37 38 39 39
6 7 9 7 7 5 6 6 5 5 5 4 4 3 2 2 3 3 3 3 3 4 3 3 3 2 2 2 1 2 2 4 4 4 4 3 3 3 6 7 7 16 18 18 18 20 21 21 21 22 22 21 22 22 23 24 26 28 29 29 30 31 31 32 32 32 32 34 35 36 37 37 38 39
7 8 8 8 6 5 6 5 5 4 4 4 5 4 3 3 3 3 3 2 3 2 3 1 2 2 2 1 2 2 3 3 4 3 3 4 3 3 4 5 5 12 18 18 19 21 21 21 21 21 21 21 21 22 23 24 25 28 28 29 29 30 30 31 32 32 32 33 34 36 36 37 38 38
9 10 9 7 7 7 7 6 6 5 4 5 4 4 3 4 3 3 3 2 3 2 0 2 1 2 2 2 2 2 3 3 3 1 3 4 3 4 4 4 4 9 15 15 19 21 20 20 21 22 21 20 21 22 23 24 25 26 27 28 28 29 30 30 30 31 31 31 33 35 36 37 37 38
10 10 10 9 8 8 8 6 6 5 5 4 5 5 4 5 4 3 3 3 3 3 2 3 2 2 1 1 2 2 4 3 2 1 3 3 3 4 5 5 5 10 12 13 18 18 19 20 21 22 21 21 21 22 23 24 25 25 26 27 28 28 29 29 29 30 30 30 30 32 35 36 36 37
8 10 9 9 9 9 9 8 6 6 6 5 5 5 5 5 4 4 3 4 4 3 3 3 4 1 0 2 2 1 4 4 2 2 3 3 3 4 6 5 5 4 3 4 8 11 11 15 19 20 19 20 20 21 22 22 24 25 25 26 27 28 28 29 29 29 29 29 29 31 34 36 37 37
7 8 8 9 9 9 8 9 9 8 6 6 6 6 5 5 4 4 4 4 3 2 2 3 3 2 2 1 2 2 3 3 2 4 6 3 3 4 6 7 6 4 4 7 11 11 12 14 13 17 18 19 19 19 19 20 22 23 24 25 26 27 28 28 28 28 28 28 29 30 31 33 35 38
7 7 7 8 7 7 7 8 7 8 8 6 6 5 5 5 5 4 4 3 2 2 2 3 3 1 0 4 2 2 2 2 0 3 5 8 9 7 5 4 5 3 5 8 7 7 7 7 11 14 15 17 20 20 18 19 21 23 23 24 25 26 27 28 28 28 28 27 28 29 29 32 34 37
7 6 6 6 6 6 8 10 8 7 6 7 7 6 6 5 6 4 4 4 2 2 2 3 1 1 2 2 2 4 3 5 4 4 5 4 4 6 6 5 1 2 6 7 6 6 6 8 7 7 8 9 15 14 18 15 20 23 23 24 24 25 27 28 28 28 28 27 28 28 29 30 32 34
6 7 6 6 9 10 9 10 10 8 7 6 5 7 7 7 6 5 5 4 4 4 4 2 1 0 2 3 1 1 1 1 2 5 5 7 7 6 4 2 1 3 7 8 9 6 3 6 7 6 8 8 9 8 9 10 15 19 22 23 23 24 25 27 28 28 28 28 27 28 28 29 30 31
9 7 6 6 8 8 8 8 9 8 8 7 9 8 7 5 7 7 7 5 4 4 3 2 1 1 2 3 1 1 1 2 3 4 5 6 6 7 9 9 6 2 8 7 7 8 4 4 6 7 6 7 7 9 9 18 20 21 21 22 23 23 24 25 27 28 28 29 28 27 27 28 29 30
9 9 8 6 5 6 7 7 6 7 9 9 9 9 8 7 6 6 5 6 6 5 5 3 3 2 3 2 1 1 2 3 3 3 4 4 5 7 6 6 7 7 7 8 7 9 4 3 4 7 6 7 7 9 15 19 21 21 21 21 22 22 23 24 24 26 27 28 28 27 27 27 28 29
10 9 8 7 6 5 9 7 6 6 7 8 10 9 8 7 7 7 8 6 4 3 4 5 4 4 3 1 1 1 1 3 4 5 4 3 3 5 7 7 7 8 6 4 4 8 6 4 6 7 7 7 7 9 13 18 20 20 20 20 21 22 22 22 23 24 26 28 29 28 27 27 27 28
10 10 10 9 8 7 8 7 8 7 6 6 6 5 4 4 5 8 8 8 8 6 5 5 5 4 2 1 1 2 2 2 3 4 3 3 4 5 6 8 7 7 4 5 6 5 4 4 7 7 8 7 8 7 12 16 19 19 20 20 20 21 21 21 22 23 24 26 28 28 27 26 26 27
11 11 9 10 10 10 9 8 10 9 8 7 6 5 5 6 6 5 5 5 4 4 4 5 5 4 1 2 1 1 0 2 4 1 2 3 4 6 5 4 4 5 2 5 4 4 6 5 7 7 7 8 8 7 9 12 17 19 19 19 20 21 21 21 21 22 23 25 25 28 27 26 25 26
8 8 9 9 9 9 9 11 16 11 8 7 8 7 6 5 4 4 5 7 6 5 4 4 3 1 1 3 1 2 3 2 1 1 2 3 2 3 5 6 4 2 4 3 2 3 7 4 6 9 6 6 8 8 7 8 16 18 19 19 20 20 21 21 22 22 23 24 25 25 27 26 25 24
8 8 8 8 8 9 9 13 17 16 12 7 8 7 6 5 4 4 2 6 8 8 8 7 7 7 7 7 8 7 8 5 1 3 1 1 2 3 5 6 3 4 5 2 4 2 6 5 6 8 8 6 7 7 7 5 9 16 18 19 19 20 21 21 21 22 22 23 24 24 25 25 23 23
6 7 11 9 9 9 9 15 17 17 12 8 8 8 7 7 6 6 4 3 4 8 8 8 8 8 7 7 7 7 6 5 1 3 3 2 2 2 3 4 5 6 3 1 2 3 3 6 6 7 7 7 3 4 6 7 5 9 11 17 19 20 20 20 21 22 22 22 23 23 24 25 20 12
6 6 8 11 9 8 10 17 17 18 12 8 8 9 8 8 9 9 7 7 6 5 4 2 1 0 1 1 0 1 4 5 4 1 2 3 2 2 3 3 5 5 3 1 4 5 5 6 6 7 8 4 5 1 5 8 5 4 5 7 9 18 19 19 20 21 22 22 22 22 24 23 19 9
5 5 5 7 12 13 14 17 18 17 15 9 8 8 8 8 10 7 7 7 6 5 5 4 3 3 2 3 2 2 2 1 2 3 3 3 4 3 2 2 2 3 3 1 5 3 4 3 6 6 3 6 6 6 7 8 5 4 5 6 6 11 14 15 14 19 21 21 22 22 23 23 21 10
9 8 7 6 11 16 16 17 18 17 17 13 8 9 9 8 3 7 7 9 10 5 4 4 4 4 4 4 4 4 4 4 4 4 3 4 3 4 4 3 3 5 6 4 4 4 3 3 5 4 4 3 5 7 8 7 4 4 5 6 5 7 6 7 6 7 12 18 20 21 22 23 24 17
7 8 8 8 12 17 17 17 18 18 17 18 9 9 9 8 9 7 5 4 4 5 5 5 4 5 6 7 5 5 5 4 3 3 4 3 3 4 4 5 4 5 7 2 5 1 2 4 2 4 4 4 6 6 8 8 2 3 5 6 5 5 5 6 6 7 7 8 8 13 16 22 21 22
9 7 8 7 13 17 17 17 17 17 18 15 9 13 13 12 12 8 5 5 5 4 4 5 6 6 6 6 6 5 4 4 4 3 2 2 2 2 2 3 4 7 7 5 2 3 3 4 4 4 5 5 6 7 7 6 7 6 6 6 5 4 5 5 6 6 7 7 8 15 15 17 19 21
6 7 8 8 16 18 17 17 17 16 16 10 14 15 13 13 12 5 5 5 6 6 5 6 6 6 6 5 6 5 5 5 3 1 0 2 3 4 4 5 5 5 6 6 5 4 4 5 5 3 4 4 5 6 7 7 5 3 6 6 3 3 5 5 5 6 6 6 7 7 7 8 9 9
4 5 7 10 15 17 17 17 15 13 15 17 15 15 13 11 4 5 5 6 6 7 7 7 6 6 6 6 4 4 4 3 1 1 1 3 5 5 4 4 4 5 4 5 5 5 6 6 6 4 3 3 4 6 6 6 5 5 5 7 6 5 4 5 4 5 6 6 6 7 7 7 8 8
7 9 10 12 13 14 12 10 7 5 6 13 16 14 12 5 5 4 4 6 7 8 7 7 7 6 4 3 3 3 2 2 2 2 2 4 4 0 1 2 4 3 5 6 6 6 6 6 5 4 3 4 4 5 5 5 6 3 4 3 4 4 1 5 5 5 6 6 5 5 6 6 7 7
4 6 6 5 7 6 10 9 7 5 6 7 8 6 4 5 4 4 5 6 7 6 5 5 5 4 5 3 3 1 2 3 3 5 5 4 3 2 1 1 4 5 6 2 6 6 7 7 6 5 3 3 3 4 5 2 4 6 5 4 1 1 4 3 4 5 5 4 3 5 5 6 6 7
3 4 5 7 5 5 6 6 4 5 4 4 4 5 4 4 4 5 7 5 5 4 3 3 3 3 3 3 3 3 3 5 5 5 4 3 3 2 1 0 2 2 4 5 2 4 5 6 6 5 5 5 3 4 2 2 5 6 5 3 2 2 1 3 3 4 4 3 3 5 4 5 6 6
4 5 5 5 6 7 8 7 7 6 6 6 5 5 5 5 5 5 6 8 7 5 4 5 5 5 4 4 3 5 5 5 4 3 4 3 5 2 2 3 3 3 3 6 3 1 2 5 4 6 6 5 5 5 2 5 6 3 4 4 1 2 2 2 2 3 3 3 4 3 4 6 6 6
5 6 7 8 9 9 9 9 9 9 8 7 7 6 7 6 7 7 7 7 6 5 6 5 5 5 5 5 5 5 5 5 4 4 5 3 3 3 4 4 4 4 4 4 3 3 1 1 1 4 3 4 3 6 7 6 7 5 3 2 1 1 1 1 2 1 2 0 1 2 3 4 5 5
8 9 10 9 8 9 8 9 9 8 8 8 8 7 7 7 8 8 7 8 6 6 6 5 5 5 6 6 5 6 5 5 5 3 3 4 4 5 4 5 5 4 3 5 4 2 1 1 1 4 3 3 3 5 9 9 4 6 2 2 3 1 1 0 0 2 2 3 2 1 1 2 4 6
9 9 9 9 10 8 9 9 7 7 8 8 8 7 7 9 9 9 10 7 7 6 6 6 6 6 6 6 5 5 5 5 5 4 4 4 4 4 4 4 3 3 3 4 4 4 2 1 0 1 1 2 2 3 2 8 9 5 2 2 0 1 0 1 1 0 2 2 1 1 1 1 1 5
9 9 9 10 8 8 10 8 7 8 8 8 8 8 9 9 9 9 6 6 7 7 7 6 6 6 6 5 6 6 6 5 5 4 5 5 5 5 5 5 5 5 4 5 4 4 2 2 1 1 1 2 3 5 4 0 2 5 6 2 1 1 1 1 1 0 0 1 1 1 1 1 0 3
9 8 8 9 8 7 7 7 6 7 7 7 7 7 8 8 5 6 6 7 7 6 7 7 6 6 6 6 6 6 5 5 4 5 5 5 5 5 5 4 4 4 4 4 4 4 4 4 3 3 3 5 4 5 3 1 0 2 3 5 2 2 1 0 1 1 1 0 2 0 0 1 1 2
8 8 9 8 8 8 8 8 7 8 8 8 9 9 9 7 6 7 8 8 7 7 7 7 7 7 7 7 6 6 6 6 6 6 6 5 5 5 5 4 4 2 2 5 4 4 2 5 5 6 6 5 7 3 1 1 2 2 3 4 5 2 1 3 3 2 2 1 1 1 1 2 3 5
10 9 10 9 9 8 8 8 9 10 10 11 10 9 8 8 8 8 8 9 9 8 8 8 8 8 7 7 7 6 6 7 6 5 5 5 5 4 5 4 4 3 2 4 5 5 4 6 5 6 6 7 5 2 3 3 3 3 3 3 5 5 4 2 2 2 1 3 2 1 1 1 0 2
9 10 10 8 9 8 8 8 8 7 8 7 6 5 6 7 7 9 9 9 9 9 9 9 9 9 8 8 8 7 7 6 6 5 5 5 5 5 5 5 4 4 4 5 5 5 6 6 6 5 4 1 1 1 0 2 4 2 4 5 6 5 6 5 4 3 2 2 2 1 1 1 1 1
9 10 8 7 9 9 8 8 7 7 7 6 6 6 6 6 7 7 7 8 9 8 7 8 8 8 8 8 7 7 7 7 7 6 7 6 5 5 7 6 5 5 5 6 5 5 2 1 2 3 1 1 0 2 4 5 3 2 2 2 3 4 4 6 7 6 4 4 4 1 0 1 1 1
8 8 9 7 7 7 8 8 7 7 7 6 6 7 7 7 7 8 8 9 9 9 9 8 8 8 8 7 7 7 7 7 6 6 6 6 6 6 5 5 4 4 5 5 3 2 2 2 2 3 2 3 4 3 5 4 3 2 1 1 2 1 1 3 4 7 7 8 6 4 3 3 2 1
8 8 8 7 7 7 7 7 7 7 7 7 7 7 8 9 9 10 10 10 10 11 10 9 9 9 9 8 7 7 7 7 6 7 7 6 5 5 5 5 5 4 3 3 3 4 5 4 4 4 4 5 4 5 6 4 6 5 4 3 2 3 3 1 3 3 3 5 7 5 4 6 8 6
8 8 8 7 7 7 7 7 7 7 7 7 7 8 8 8 9 9 9 10 10 9 9 10 9 8 8 8 8 9 7 7 6 6 6 5 5 6 5 5 5 5 4 4 4 4 3 3 3 4 5 5 4 4 6 5 5 3 1 2 4 4 3 3 2 2 2 3 5 7 5 4 3 6
Wind_Direction
135 130 129 128 121 111 98 88 91 99 83 91 105 118 145 156 142 191 195 268 187 280 121 142 13 61 63 50 34 15 330 8 24 357 340 327 328 326 342 340 341 341 345 349 349 348 348 349 348 347 347 347 345 344 346 346 348 347 343 344 351 355 355 354 352 349 349 347 346 345 345 344 343 342
134 126 120 122 119 121 105 110 107 105 112 104 97 107 114 122 161 179 157 250 210 204 342 75 124 24 52 44 13 359 359 3 9 358 339 327 315 341 344 341 341 343 345 349 350 349 350 350 349 348 349 348 347 347 347 350 349 345 345 345 355 357 355 354 352 351 349 349 348 347 347 345 345 343
138 134 126 124 124 121 119 111 106 103 101 113 108 92 97 102 138 162 143 155 287 131 147 45 80 83 42 48 21 7 19 348 14 14 339 321 343 354 332 340 343 344 346 348 351 350 350 351 350 350 351 348 349 349 350 351 349 346 347 351 355 356 355 354 353 352 351 349 349 349 348 347 346 345
143 134 131 137 134 130 122 126 129 116 98 98 108 119 119 131 118 118 151 160 239 324 114 133 35 59 54 29 39 342 349 342 31 3 332 330 13 345 328 330 340 347 347 349 352 350 350 351 352 352 353 350 351 351 352 353 350 349 353 355 355 356 354 353 354 353 352 351 351 350 350 349 348 347
139 135 132 137 137 134 135 141 133 122 121 103 106 97 108 137 144 139 154 183 260 304 41 67 37 346 62 351 17 13 338 0 359 354 328 6 13 343 334 332 332 346 348 350 353 351 351 352 353 354 354 351 353 352 355 354 354 353 357 358 358 357 355 353 352 353 353 352 352 352 351 351 349 348
146 138 135 138 140 141 138 139 137 140 140 148 131 139 143 152 150 138 142 180 183 254 326 7 350 359 33 357 305 9 28 4 3 341 334 4 357 347 337 338 333 341 346 350 355 353 351 353 354 355 354 352 354 355 357 357 355 356 360 360 359 358 356 353 353 353 353 353 353 353 353 353 351 350
147 138 140 144 141 135 134 139 144 145 156 154 147 160 149 146 144 132 126 138 199 252 286 284 12 336 320 298 289 350 57 26 351 341 338 359 330 352 344 334 326 336 345 351 355 355 352 353 354 354 352 352 353 355 357 357 356 355 359 1 0 0 357 356 355 354 354 353 353 354 354 354 354 352
154 149 143 152 149 142 140 146 148 155 156 153 147 148 162 150 153 153 139 159 151 192 175 302 36 291 321 299 329 24 29 25 338 354 1 333 329 350 341 335 319 336 346 354 355 353 353 353 354 353 352 353 354 355 356 357 356 357 358 2 3 1 358 358 357 356 355 354 354 355 356 356 356 355
155 156 156 156 153 150 145 154 160 168 169 169 152 164 176 160 165 154 163 200 177 177 228 281 274 272 296 263 331 48 34 353 316 6 10 317 330 351 328 321 333 338 342 357 356 354 353 351 352 351 352 353 354 355 356 355 355 355 357 2 4 2 359 359 360 359 357 356 355 356 357 358 358 359
161 157 156 157 157 157 161 167 167 167 171 164 161 168 170 159 149 164 198 186 190 183 219 227 296 317 1 346 311 16 40 355 325 321 330 333 359 352 338 330 328 327 343 4 351 347 348 347 348 350 352 352 353 355 354 354 354 354 357 1 4 3 0 360 1 1 1 359 358 357 358 0 1 1
154 151 152 158 162 163 165 164 169 166 170 170 172 172 161 156 151 178 200 194 174 182 222 263 249 259 303 359 317 321 22 341 18 3 342 12 14 350 341 334 333 330 349 353 352 347 346 348 345 346 350 349 352 353 353 353 355 354 358 1 4 4 2 1 1 2 2 3 2 360 359 1 2 4
149 149 153 158 161 160 165 164 162 166 169 164 169 170 159 163 163 184 188 148 150 186 221 216 244 279 347 344 336 342 345 306 167 40 15 342 339 344 338 322 318 322 1 342 343 341 338 343 341 343 344 345 349 348 346 346 355 354 358 0 2 3 5 5 4 3 2 3 3 1 1 2 4 4
139 141 145 150 150 146 149 153 157 165 168 165 168 175 165 172 166 172 146 148 155 201 176 246 315 33 356 303 320 318 339 19 358 348 359 322 312 323 326 321 300 19 1 339 335 341 346 343 340 340 340 339 344 341 340 338 352 354 358 1 2 2 4 6 7 7 4 1 0 1 0 1 3 5
142 143 139 136 135 136 136 139 143 140 143 156 169 168 165 171 164 163 154 159 181 177 198 208 170 332 274 270 271 332 306 25 11 357 345 333 329 327 312 267 358 31 11 347 337 335 343 347 323 342 339 332 340 337 331 336 349 355 359 1 3 3 4 4 6 6 6 4 1 1 2 2 3 3
151 141 135 137 140 139 139 142 145 146 141 125 123 128 142 160 165 160 161 185 179 180 174 181 145 200 238 262 256 301 18 24 36 342 333 322 330 349 348 339 331 97 12 343 322 320 347 352 332 336 333 329 334 333 325 338 351 356 0 2 3 4 5 5 5 5 6 5 4 3 3 4 4 5
152 150 148 151 153 158 156 151 153 157 155 149 144 142 141 141 156 169 157 169 179 176 166 177 193 171 230 233 284 343 39 5 1 332 325 327 338 335 335 322 321 324 357 333 330 314 336 345 340 332 332 331 330 325 327 341 355 0 1 3 4 4 5 6 6 5 6 10 8 5 5 4 5 5
156 154 153 157 167 167 162 156 160 159 161 163 160 160 164 170 174 185 194 191 167 155 149 167 212 202 204 224 255 97 72 19 328 321 310 325 335 325 312 309 313 322 338 334 335 313 316 355 348 334 328 330 326 324 321 340 357 2 4 4 5 4 6 7 6 6 6 10 12 11 8 7 7 8
161 163 163 164 170 170 167 167 167 167 166 165 165 170 167 172 189 198 203 204 196 184 173 176 195 238 173 195 126 87 56 346 308 301 303 332 326 318 301 303 308 310 340 10 336 302 324 354 345 336 325 328 323 319 315 341 357 5 5 6 6 5 5 6 6 7 8 9 10 14 14 10 10 9
166 169 170 171 166 166 170 175 173 170 171 168 172 174 184 190 194 194 197 195 197 196 185 194 204 215 180 132 114 108 140 246 255 278 295 328 315 294 298 305 288 293 328 5 351 306 320 356 339 328 325 324 320 313 311 337 360 6 8 7 8 6 7 8 8 8 8 9 9 11 14 14 11 11
169 168 168 164 165 170 172 179 178 175 167 168 174 182 185 182 178 189 194 194 187 181 178 174 178 170 208 240 232 231 226 214 191 92 47 347 301 341 319 303 303 284 308 346 37 315 313 339 345 319 322 326 317 314 315 335 2 10 10 9 7 8 8 9 10 9 9 9 10 10 14 18 14 12
165 171 171 167 163 169 179 183 182 181 177 171 176 175 176 179 191 215 226 207 201 200 205 213 224 237 246 262 276 281 277 264 193 94 40 259 87 342 312 305 316 315 345 328 40 322 308 335 340 321 322 329 301 306 312 318 358 15 13 10 7 8 9 10 11 10 9 9 10 11 13 18 17 11
166 171 172 167 165 172 179 183 184 183 177 174 175 173 177 187 203 217 205 214 221 207 212 220 230 241 252 262 268 265 258 257 225 119 193 196 111 262 285 292 319 313 328 284 340 13 312 326 336 331 318 303 282 294 318 336 345 13 16 10 9 9 10 12 12 11 10 10 11 12 13 17 19 11
162 170 169 169 167 171 176 183 185 184 179 176 180 179 177 194 209 212 189 191 191 181 175 200 106 15 275 310 39 221 240 238 241 208 191 184 184 211 250 288 319 330 331 264 30 4 325 344 341 349 332 329 300 257 349 325 338 3 19 13 4 9 9 12 13 12 10 9 12 13 14 14 20 16
179 175 174 176 178 177 183 187 186 186 183 178 181 176 189 191 218 195 188 193 179 181 177 188 182 201 214 216 221 208 199 212 178 197 204 194 166 172 210 247 245 246 254 275 9 4 310 353 331 346 338 316 318 325 335 324 343 1 27 16 14 4 5 8 7 10 9 9 11 13 15 17 20 21
176 181 185 185 187 188 188 190 190 190 192 188 187 194 199 198 172 161 182 190 180 177 181 184 198 211 223 216 208 198 197 199 210 211 214 155 166 167 194 213 234 250 265 267 321 56 309 330 309 328 312 294 283 311 314 311 318 18 14 27 17 358 4 3 359 359 2 5 7 13 16 20 22 24
191 191 183 186 191 191 191 191 194 194 197 199 196 205 201 194 193 169 172 166 166 168 179 189 213 217 214 210 201 196 190 191 197 184 184 203 202 221 196 183 199 244 266 261 311 339 292 300 310 317 308 308 296 306 310 315 304 344 17 11 21 360 10 0 3 2 2 359 350 10 15 22 24 25
196 185 190 185 184 192 191 194 195 197 201 204 202 201 201 199 192 172 158 164 176 185 191 200 215 217 205 201 201 193 195 203 191 179 167 168 186 217 214 215 210 225 252 260 233 200 225 260 291 291 298 305 300 309 299 308 325 337 1 8 347 359 3 20 14 1 355 359 354 4 8 13 18 22
190 187 188 184 184 192 193 195 197 199 203 205 207 207 208 205 202 161 171 185 192 186 193 204 214 216 218 199 202 202 188 190 167 142 193 262 259 231 236 236 236 235 242 247 239 220 205 239 266 260 279 283 291 298 304 308 312 331 336 335 326 2 12 15 11 3 355 356 358 358 360 358 2 3
189 180 179 179 187 193 195 195 198 204 211 212 212 211 211 203 163 171 193 200 185 193 202 208 211 217 213 204 194 173 150 141 131 134 261 242 235 237 236 235 234 242 243 237 225 212 206 212 231 248 252 268 278 286 297 290 311 319 341 347 342 341 11 9 13 9 353 354 4 1 0 350 0 3
173 175 177 185 191 195 195 191 194 190 204 214 210 212 209 152 170 176 205 218 204 208 201 200 209 207 190 170 153 142 127 130 191 199 227 227 255 320 305 319 303 277 247 231 213 207 207 215 217 215 239 255 251 274 283 296 299 305 322 331 292 303 20 22 2 0 3 355 355 359 352 352 360 7
159 160 158 170 178 183 192 187 184 180 203 211 204 196 157 148 170 193 214 224 229 219 204 207 204 181 162 127 127 167 168 209 223 205 217 208 218 187 221 197 285 309 293 255 207 199 201 212 207 174 198 249 267 240 258 225 274 299 303 299 354 346 296 358 2 0 353 352 346 355 357 357 360 4
127 129 136 158 156 159 182 178 137 153 162 174 166 168 158 157 188 219 226 231 236 237 202 174 148 146 141 168 180 190 207 219 222 214 209 198 225 210 152 338 262 261 291 316 285 236 210 208 206 206 187 194 237 278 316 274 252 258 272 286 296 300 350 16 0 342 344 342 17 11 356 359 3 353
122 130 151 163 170 182 188 183 183 177 179 190 185 182 180 186 195 206 199 209 211 200 180 193 185 191 179 199 192 198 214 223 207 227 191 222 173 227 177 211 237 254 274 293 303 306 224 223 220 204 200 211 207 212 239 299 283 234 213 264 340 327 316 348 22 343 330 23 19 359 9 359 355 2
158 183 189 195 190 193 195 198 195 195 192 189 195 203 200 195 200 205 209 211 206 196 203 193 189 193 188 200 201 204 204 224 213 211 198 222 210 184 224 242 254 249 247 254 247 245 294 289 314 296 263 246 234 197 189 204 255 275 233 223 195 267 276 352 346 318 7 60 6 29 18 4 348 0
190 199 207 208 204 207 204 210 204 197 195 202 203 207 202 205 204 207 208 210 192 196 192 196 194 192 195 199 200 199 206 192 216 223 237 179 201 206 214 237 255 254 259 273 273 271 174 260 0 329 307 259 288 289 211 190 192 245 313 295 215 180 273 277 294 343 37 3 39 72 20 7 2 339
213 212 218 218 214 207 211 217 205 203 204 205 206 204 201 214 208 202 212 195 181 186 185 191 194 196 201 199 202 200 197 191 191 198 219 221 202 210 210 221 229 245 248 251 255 254 187 204 170 271 279 290 270 282 318 198 183 189 185 249 268 175 246 279 306 17 49 19 35 116 110 88 344 332
220 220 222 228 223 211 223 215 209 215 212 211 208 207 211 214 210 207 198 167 179 187 190 187 199 197 198 195 196 200 191 190 198 205 204 216 205 197 206 235 236 238 241 254 246 251 181 194 193 177 226 257 249 252 243 323 244 153 159 178 252 222 190 298 344 1 311 125 41 78 180 152 314 311
229 227 233 236 232 227 225 222 215 221 221 217 217 217 220 218 197 183 166 171 186 182 188 193 199 197 194 191 188 198 191 196 190 206 219 206 197 213 207 214 225 229 252 270 269 249 208 188 200 210 184 206 240 247 261 241 21 294 164 146 162 232 182 120 350 212 258 323 153 226 99 95 245 274
231 231 233 237 231 227 226 222 212 221 216 216 217 217 213 199 177 170 179 187 179 181 188 190 196 195 189 193 190 190 191 192 201 204 203 214 208 202 216 213 224 245 251 270 280 288 239 200 204 205 194 199 216 230 199 216 262 257 276 181 145 151 224 162 215 247 199 194 275 303 257 236 251 265
231 228 232 230 234 224 227 218 215 216 216 217 216 212 200 195 185 180 182 183 182 186 187 194 189 190 193 190 187 187 195 202 204 202 198 201 211 201 187 193 205 206 233 263 271 271 256 230 210 204 207 217 211 195 203 246 251 240 244 271 223 177 188 155 190 176 253 225 174 131 290 351 20 317
239 235 237 232 239 235 232 233 228 228 230 227 222 211 203 196 188 194 190 186 184 185 192 195 191 191 188 185 187 187 192 199 195 199 204 205 210 205 212 222 225 219 221 251 241 248 248 241 214 184 156 146 41 27 356 280 269 265 219 250 252 231 226 192 178 172 199 200 149 152 174 195 236 351
243 247 244 231 234 238 233 238 229 223 226 208 199 197 197 196 203 183 181 186 189 194 193 192 192 189 187 185 184 188 189 195 193 194 198 194 202 210 210 211 210 214 218 237 227 227 257 169 136 121 118 109 94 172 225 212 237 262 230 237 285 290 266 251 224 202 168 158 130 145 120 341 23 327
246 250 250 242 234 234 230 232 227 215 214 195 196 189 188 194 187 186 191 191 191 191 197 193 191 188 187 186 187 188 183 192 193 192 197 192 185 193 205 213 215 214 223 238 239 263 261 204 159 149 163 171 222 191 230 242 235 228 243 191 212 244 335 319 271 236 217 208 199 186 168 165 140 233
247 248 249 240 231 228 222 219 218 209 201 198 193 188 193 195 199 202 197 197 191 195 193 190 189 185 187 186 183 185 190 187 185 187 195 195 189 187 192 205 214 226 238 253 273 265 267 244 202 177 174 224 215 220 245 247 258 235 221 220 183 149 197 268 337 309 226 217 223 224 252 229 214 212
247 246 247 236 228 225 220 213 208 201 197 194 189 196 199 201 208 205 202 200 200 194 191 191 188 185 181 180 178 187 193 181 186 193 186 189 189 192 191 193 205 218 220 223 221 245 250 240 230 183 201 222 218 233 246 229 234 235 244 179 196 185 182 172 193 239 231 286 254 231 273 316 268 255